FW1036 Weather Reports


time (UTC)temp
C
wind
direction
speed
KPH
gust
KPH
rain 1hr
cm
rain 24hr
cm
rain mn
cm
humidity
%
barometer
mb
20260831233117 22 161 6.4 17.7 0.00 1.35 1.35 84 1011.2
20260831231554 23 161 9.7 19.3 0.00 1.35 1.35 83 1011.5
20260831230053 23 151 8.0 16.1 0.00 1.35 1.35 81 1011.7
20260831224550 23 167 8.0 19.3 0.00 1.35 1.35 80 1011.7
20260831223050 23 189 4.8 12.9 0.00 1.35 1.35 80 1012.2
20260831221546 23 199 3.2 9.7 0.00 1.35 1.35 84 1012.3
20260831220044 23 163 4.8 12.9 0.00 1.35 1.35 84 1012.3
20260831214543 22 140 4.8 12.9 0.00 1.40 1.35 85 1012.4
20260831213040 22 163 6.4 14.5 0.00 1.40 1.35 86 1012.4
20260831211539 22 159 8.0 11.3 0.00 1.40 1.35 85 1012.4
20260831210043 21 131 3.2 9.7 0.00 1.40 1.35 87 1012.6
20260831204538 21 10 9.7 14.5 0.00 1.68 1.35 86 1012.8
20260831203038 21 107 1.6 4.8 0.00 1.68 1.35 86 1012.4
20260831201545 21 109 1.6 3.2 0.00 1.68 1.35 86 1012.7
20260831200037 21 159 1.6 8.0 0.00 1.68 1.35 87 1012.4
20260831194536 21 159 1.6 9.7 0.03 1.68 1.35 89 1012.4
20260831193035 20 139 3.2 14.5 0.03 1.68 1.35 90 1012.0
20260831191532 20 168 3.2 17.7 0.03 1.68 1.35 90 1012.5
20260831190032 21 188 8.0 16.1 0.00 1.65 1.32 91 1012.7
20260831184529 21 184 4.8 16.1 0.00 1.65 1.32 91 1012.9
20260831183031 21 193 3.2 16.1 0.08 1.65 1.32 92 1013.3
20260831181526 21 189 4.8 9.7 0.13 1.65 1.32 92 1013.7
20260831180026 21 138 0.0 4.8 0.13 1.65 1.32 92 1014.4
20260831174525 21 203 0.0 3.2 0.13 1.65 1.32 92 1014.9
20260831173024 21 295 0.0 3.2 0.05 1.57 1.24 91 1015.3
20260831171526 22 290 1.6 4.8 0.00 1.52 1.19 91 1015.6
20260831170029 22 232 1.6 8.0 0.03 1.52 1.19 91 1015.2
20260831164522 22 244 1.6 6.4 0.08 1.57 1.19 93 1015.2
20260831163018 21 167 0.0 3.2 0.08 1.57 1.19 93 1015.1
20260831161517 20 200 0.0 0.0 0.08 1.57 1.19 93 1015.0
20260831160013 20 253 0.0 1.6 0.23 1.63 1.17 93 1015.0
20260831154510 20 253 0.0 4.8 0.58 1.57 1.12 93 1015.4
20260831153008 20 278 1.6 11.3 0.58 1.57 1.12 93 1015.8
20260831151515 20 306 1.6 14.5 0.61 1.57 1.12 93 1015.5
20260831150007 20 279 8.0 20.9 0.41 1.42 0.91 93 1015.7
20260831144504 20 253 1.6 6.4 0.03 1.07 0.53 93 1015.4
20260831143117 20 223 0.0 0.0 0.03 1.07 0.53 93 1014.7
20260831141607 20 223 0.0 0.0 0.00 1.04 0.51 93 1014.5
20260831140100 20 223 0.0 0.0 0.00 1.04 0.51 93 1014.5
20260831134601 20 223 0.0 0.0 0.00 1.09 0.51 93 1014.2
20260831133056 20 159 0.0 3.2 0.00 1.09 0.51 92 1014.3
20260831131601 20 159 0.0 3.2 0.00 1.09 0.51 93 1014.2
20260831130056 20 159 0.0 1.6 0.00 1.09 0.51 93 1013.9
20260831124602 20 167 1.6 8.0 0.00 1.19 0.51 93 1013.9
20260831123054 20 179 1.6 4.8 0.00 1.19 0.51 93 1014.1
20260831121557 20 219 0.0 1.6 0.03 1.19 0.51 93 1014.0
20260831120047 19 219 0.0 1.6 0.05 1.19 0.51 93 1014.1
20260831114551 19 219 0.0 0.0 0.13 1.27 0.51 93 1013.8
20260831113044 19 144 3.2 8.0 0.28 1.27 0.51 93 1013.7
20260831111548 19 160 1.6 8.0 0.33 1.24 0.48 93 1013.5
20260831110054 19 165 1.6 8.0 0.33 1.19 0.43 93 1013.8
20260831104543 19 238 1.6 11.3 0.28 1.17 0.38 93 1014.1
20260831103040 19 280 0.0 1.6 0.20 1.02 0.23 92 1014.3
20260831101544 19 279 0.0 1.6 0.13 0.94 0.15 92 1014.6
20260831100037 19 279 0.0 1.6 0.08 0.89 0.10 92 1014.4
20260831094540 19 279 0.0 1.6 0.08 0.89 0.10 91 1014.4
20260831093035 19 213 3.2 8.0 0.00 0.81 0.03 91 1014.1
20260831091545 19 212 0.0 4.8 0.00 0.81 0.03 92 1013.9
20260831090033 19 205 1.6 6.4 0.00 0.81 0.03 92 1014.0
20260831084532 19 208 3.2 6.4 0.00 0.81 0.03 92 1014.0
20260831083031 19 223 0.0 3.2 0.00 0.81 0.03 92 1014.1
20260831081531 19 253 1.6 8.0 0.00 0.81 0.03 92 1013.8
20260831080032 19 225 1.6 6.4 0.00 0.81 0.03 92 1013.8
20260831074528 20 227 0.0 4.8 0.00 0.81 0.03 92 1014.1
20260831073029 19 232 1.6 9.7 0.00 0.81 0.03 92 1014.0
20260831071531 20 231 1.6 8.0 0.00 0.81 0.03 92 1014.0
20260831070025 19 240 1.6 4.8 0.00 0.81 0.03 92 1014.1
20260831064525 20 206 3.2 6.4 0.03 0.81 0.03 92 1014.2
20260831063022 20 201 3.2 9.7 0.03 0.81 0.03 92 1014.5
20260831061521 20 201 3.2 11.3 0.03 0.81 0.03 92 1014.5
20260831060020 20 210 1.6 14.5 0.03 0.81 0.03 92 1014.5
20260831054518 20 215 3.2 11.3 0.00 0.79 0.00 91 1014.3
20260831053022 20 202 4.8 9.7 0.00 0.79 0.00 91 1014.6
20260831051520 20 196 6.4 24.1 0.00 0.79 0.00 91 1014.4
20260831050014 20 215 4.8 14.5 0.00 0.79 0.00 91 1014.4
20260831044514 20 199 6.4 14.5 0.00 0.79 0.00 91 1014.4
20260831043012 20 191 4.8 12.9 0.00 0.79 0.00 92 1014.5
20260831041511 20 211 1.6 8.0 0.00 0.79 0.00 92 1014.5
20260831040022 20 235 3.2 8.0 0.00 0.79 0.79 92 1014.5
20260831034512 20 235 4.8 12.9 0.00 0.79 0.79 92 1014.5
20260831033007 20 219 4.8 17.7 0.00 0.79 0.79 92 1014.6
20260831031506 20 177 4.8 12.9 0.00 0.79 0.79 92 1014.6
20260831030005 20 232 4.8 16.1 0.00 0.79 0.79 92 1014.4
20260831024504 19 138 6.4 14.5 0.00 0.79 0.79 92 1014.3
20260831023006 19 159 4.8 14.5 0.00 0.79 0.79 92 1014.3
20260831021503 19 142 6.4 17.7 0.00 0.79 0.79 92 1014.3
20260831020001 19 155 6.4 19.3 0.00 0.79 0.79 92 1014.4
20260831014501 19 171 11.3 19.3 0.00 0.79 0.79 92 1014.6
20260831013108 19 185 11.3 19.3 0.00 0.79 0.79 92 1014.6
20260831011559 19 156 11.3 19.3 0.00 0.79 0.79 92 1014.6
20260831010059 19 178 8.0 17.7 0.00 0.79 0.79 92 1014.5
20260831004603 19 134 9.7 20.9 0.00 0.79 0.79 92 1014.5
20260831003057 19 192 8.0 19.3 0.00 0.79 0.79 92 1014.5
20260831001556 19 153 8.0 25.7 0.00 0.79 0.79 92 1014.7
20260831000056 19 165 4.8 19.3 0.00 0.79 0.79 92 1014.7
20260830234556 19 171 3.2 16.1 0.00 0.79 0.79 92 1014.7